{"data":{"norad_id":39059,"epoch":"2026-05-25T04:55:46.072704Z","epoch_age_seconds":60321,"freshness":"FRESH","line1":"1 39059U 13001C   26145.20539436  .00000181  00000+0  12339-2 0  9990","line2":"2 39059  82.5021 236.1790 0027504  85.1289 275.2930 12.42939013605705","mean_motion":12.42939013,"eccentricity":0.0027504,"inclination_deg":82.5021,"raan_deg":236.179,"arg_perigee_deg":85.1289,"mean_anomaly_deg":275.293,"bstar":0.0012339,"rev_number":60570,"period_min":115.85443734076,"perigee_km":1472.5169106716,"apogee_km":1515.8208909709,"semimajor_km":7872.3059008213,"source":"CELESTRAK","updated_at":"2026-05-25T13:37:55.335030Z"}}